Weather in Oktyabrskoye

Russia / Republic of Crimea     45°17′32″N   34°07′54″E
temp.,
°C
wind,
m/s
gust,
m/s
humid.,
%
clouds,
%
prec.,
mm/h
press.,
hPa
HPBL,
m
28 february, sun
sun2800:00+5nnw6885100 2.4 1019606
03:00+4nnw4779100 2.5 1019675
06:00+4nnw4784100 0.1 1020559
09:00+4nw4784100 0.4 1021659
12:00+4nw5680100 0.4 1022784
15:00+5nw677199 0.9 1022992
18:00+3nw368193 0.3 1022578
21:00+2wnw358793 0.5 1024179
1 march, mon
mon100:00+2wnw359096 0.1 1024399
03:00+1sw239098 0.1 102483
06:000wsw249892 0.1 1025136
09:00+1nw349496 0.4 1026258
12:00+3nne2276100 0.1 1027616
15:00+4nw2262100 0.2 1027873
18:00+4nne337097 0.1 1028717
21:00+2ene247994 0.2 102997
2 march, tue
tue200:00+1e118667 0.0 103022
03:00+2wnw018082 0.1 103022
06:000nnw118122 0.0 103022
09:00+1wnw227312 0.0 1030215
12:00+5w455923 0.0 10301072
15:00+6w675534 0.0 10281090
18:00+4wsw796827 0.0 1026847
21:00+3wsw6118159 0.0 1026510
3 march, wed
wed300:00+3sw7128440 0.0 1025460
03:00+5wsw598670 0.0 1024367
06:00+2w339639 0.0 102465
09:00+3w348920 0.0 1025203
12:00+8wnw46656 0.0 1026994
15:00+9nw575647 0.0 10251470
18:00+8nnw456179 0.0 1026711
21:00+7n246390 0.1 1027125
4 march, thu
thu400:00+5ene116778 0.0 102822
03:00+3s227339 0.0 102822
06:00+2s22750 0.0 102722
09:00+4s236819 0.0 1027124
12:00+9wsw34490 0.0 10261198
15:00+11wsw45420 0.0 10251431
18:00+8wsw46620 0.0 1023496
21:00+5sw37790 0.0 1022221